Location: Pedro
(43.9050°N, 104.3408°W)
Time: 11:28:06
(UTC+00:00)

A-11 Canister half - Pass Details

Date: 03 June 2022
Orbit: 1513 x 1687 km, 47.2° (Epoch: 02 July)

Event Time Altitude Azimuth Distance (km) Brightness Sun altitude
Rises 09:54:51 0° 176° (S) 4,862 11.2 -12.1°
Reaches altitude 10° 09:59:49 10° 156° (SSE) 3,847 10.9 -11.5°
Maximum altitude 10:04:48 15° 124° (SE) 3,407 10.9 -10.9°
Drops below altitude 10° 10:09:42 10° 93° (E) 3,783 11.7 -10.2°
Sets 10:14:28 0° 73° (ENE) 4,738 12.8 -9.6°
